| time (UTC) | temp F | wind direction | speed MPH | gust MPH | rain 1hr in | rain 24hr in | rain mn in | humidity % | barometer mb |
| 20260510044733 | 76 | 63 | 1.0 | 2.0 | 0.00 | 0.00 | 0.00 | 70 | 1021.8 |
| 20260510043732 | 76 | 85 | 0.0 | 3.0 | 0.00 | 0.00 | 0.00 | 70 | 1021.4 |
| 20260510042730 | 77 | 31 | 1.0 | 2.0 | 0.00 | 0.00 | 0.00 | 70 | 1021.3 |
| 20260510041729 | 77 | 289 | 0.0 | 2.0 | 0.00 | 0.00 | 0.00 | 70 | 1021.6 |
| 20260510040728 | 77 | 94 | 0.0 | 3.0 | 0.00 | 0.00 | 0.00 | 70 | 1021.7 |
| 20260510035727 | 77 | 126 | 1.0 | 2.0 | 0.00 | 0.00 | 0.00 | 70 | 1022.0 |
| 20260510034726 | 77 | 15 | 2.0 | 2.0 | 0.00 | 0.00 | 0.00 | 70 | 1021.7 |
| 20260510032724 | 77 | 27 | 0.0 | 2.0 | 0.00 | 0.00 | 0.00 | 70 | 1022.0 |
| 20260510031723 | 78 | 149 | 1.0 | 2.0 | 0.00 | 0.00 | 0.00 | 70 | 1022.5 |
| 20260510030722 | 78 | 55 | 0.0 | 1.0 | 0.00 | 0.00 | 0.00 | 70 | 1022.5 |
| 20260510025721 | 78 | 50 | 0.0 | 2.0 | 0.00 | 0.00 | 0.00 | 70 | 1022.6 |
| 20260510024720 | 78 | 27 | 0.0 | 1.0 | 0.00 | 0.00 | 0.00 | 70 | 1022.4 |
| 20260510023719 | 77 | 55 | 0.0 | 1.0 | 0.00 | 0.00 | 0.00 | 70 | 1022.4 |
| 20260510022718 | 77 | 65 | 0.0 | 2.0 | 0.00 | 0.00 | 0.00 | 70 | 1022.3 |
| 20260510021717 | 76 | 45 | 1.0 | 3.0 | 0.00 | 0.00 | 0.00 | 70 | 1022.7 |
| 20260510020716 | 76 | 90 | 0.0 | 2.0 | 0.00 | 0.00 | 0.00 | 70 | 1022.7 |
| 20260510015715 | 76 | 90 | 1.0 | 3.0 | 0.00 | 0.00 | 0.00 | 70 | 1023.4 |
| 20260510014713 | 75 | 90 | 0.0 | 3.0 | 0.00 | 0.00 | 0.00 | 70 | 1023.5 |
| 20260510013712 | 74 | 108 | 2.0 | 3.0 | 0.00 | 0.00 | 0.00 | 70 | 1023.5 |
| 20260510012711 | 74 | 137 | 1.0 | 3.0 | 0.00 | 0.00 | 0.00 | 70 | 1023.5 |
| 20260510011710 | 74 | 116 | 2.0 | 3.0 | 0.00 | 0.00 | 0.00 | 70 | 1023.6 |
| 20260510010709 | 74 | 94 | 0.0 | 4.0 | 0.00 | 0.00 | 0.00 | 70 | 1023.7 |
| 20260510005708 | 74 | 110 | 1.0 | 4.0 | 0.00 | 0.00 | 0.00 | 70 | 1023.7 |
| 20260510004708 | 74 | 56 | 0.0 | 6.0 | 0.00 | 0.00 | 0.00 | 70 | 1023.6 |
| 20260510004358 | 73 | 104 | 5.0 | 5.0 | 0.00 | 0.00 | 0.00 | 70 | 1023.6 |
| 20260510003900 | 73 | 234 | 0.0 | 5.0 | 0.00 | 0.00 | 0.00 | 70 | 1023.5 |
| 20260510002859 | 73 | 27 | 2.0 | 4.0 | 0.00 | 0.00 | 0.00 | 70 | 1023.6 |
| 20260510001858 | 73 | 232 | 1.0 | 7.0 | 0.00 | 0.00 | 0.00 | 70 | 1023.8 |
| 20260510000857 | 73 | 74 | 5.0 | 5.0 | 0.00 | 0.00 | 0.00 | 70 | 1024.0 |
| 20260510000550 | 73 | 84 | 0.0 | 4.0 | 0.00 | 0.00 | 0.00 | 70 | 1024.0 |
| 20260509235550 | 73 | 72 | 5.0 | 5.0 | 0.00 | 0.00 | 0.00 | 70 | 1024.4 |
| 20260509235055 | 72 | 75 | 0.0 | 3.0 | 0.00 | 0.00 | 0.00 | 70 | 1024.3 |
| 20260509234054 | 72 | 105 | 0.0 | 2.0 | 0.00 | 0.00 | 0.00 | 70 | 1024.3 |
| 20260509233053 | 72 | 84 | 2.0 | 5.0 | 0.00 | 0.00 | 0.00 | 70 | 1024.3 |
| 20260509232052 | 72 | 235 | 2.0 | 4.0 | 0.00 | 0.00 | 0.00 | 70 | 1024.1 |
| 20260509231051 | 71 | 97 | 2.0 | 3.0 | 0.00 | 0.00 | 0.00 | 70 | 1023.7 |
| 20260509230050 | 71 | 142 | 0.0 | 3.0 | 0.00 | 0.00 | 0.00 | 70 | 1024.0 |
| 20260509225049 | 70 | 163 | 2.0 | 2.0 | 0.00 | 0.00 | 0.00 | 70 | 1023.8 |
| 20260509224048 | 69 | 215 | 3.0 | 4.0 | 0.00 | 0.00 | 0.00 | 70 | 1023.0 |
| 20260509223047 | 69 | 100 | 1.0 | 4.0 | 0.00 | 0.00 | 0.00 | 70 | 1022.9 |
| 20260509222047 | 69 | 71 | 0.0 | 4.0 | 0.00 | 0.00 | 0.00 | 70 | 1022.9 |
| 20260509221654 | 69 | 143 | 5.0 | 5.0 | 0.00 | 0.00 | 0.00 | 70 | 1023.1 |
| 20260509220722 | 69 | 93 | 0.0 | 4.0 | 0.00 | 0.00 | 0.00 | 70 | 1023.1 |
| 20260509215721 | 68 | 103 | 1.0 | 2.0 | 0.00 | 0.00 | 0.00 | 70 | 1023.2 |
| 20260509214720 | 68 | 146 | 4.0 | 4.0 | 0.00 | 0.00 | 0.00 | 70 | 1023.1 |
| 20260509213718 | 67 | 15 | 1.0 | 2.0 | 0.00 | 0.00 | 0.00 | 70 | 1022.8 |
| 20260509212717 | 67 | 45 | 0.0 | 1.0 | 0.00 | 0.00 | 0.00 | 70 | 1023.0 |
| 20260509211716 | 66 | 135 | 0.0 | 1.0 | 0.00 | 0.00 | 0.00 | 70 | 1023.1 |
| 20260509210715 | 66 | 187 | 2.0 | 3.0 | 0.00 | 0.00 | 0.00 | 70 | 1022.9 |
| 20260509205714 | 66 | 241 | 1.0 | 1.0 | 0.00 | 0.00 | 0.00 | 70 | 1022.5 |
| 20260509204713 | 66 | 144 | 0.0 | 1.0 | 0.00 | 0.00 | 0.00 | 70 | 1022.4 |
| 20260509203712 | 66 | 90 | 0.0 | 2.0 | 0.00 | 0.00 | 0.00 | 70 | 1022.6 |
| 20260509201710 | 65 | 243 | 0.0 | 1.0 | 0.00 | 0.00 | 0.00 | 70 | 1022.3 |
| 20260509200709 | 65 | 268 | 0.0 | 1.0 | 0.00 | 0.00 | 0.00 | 70 | 1021.9 |
| 20260509195708 | 65 | 205 | 0.0 | 0.0 | 0.00 | 0.00 | 0.00 | 70 | 1022.1 |
| 20260509194707 | 65 | 85 | 1.0 | 3.0 | 0.00 | 0.00 | 0.00 | 70 | 1022.1 |
| 20260509193705 | 65 | 135 | 0.0 | 1.0 | 0.00 | 0.00 | 0.00 | 70 | 1022.2 |
| 20260509192704 | 65 | 143 | 1.0 | 1.0 | 0.00 | 0.00 | 0.00 | 70 | 1021.9 |
| 20260509191703 | 65 | 228 | 0.0 | 2.0 | 0.00 | 0.00 | 0.00 | 70 | 1021.9 |
| 20260509190702 | 65 | 85 | 0.0 | 1.0 | 0.00 | 0.00 | 0.00 | 70 | 1021.9 |
| 20260509185701 | 65 | 159 | 0.0 | 1.0 | 0.00 | 0.00 | 0.00 | 70 | 1021.8 |
| 20260509184700 | 65 | 106 | 1.0 | 2.0 | 0.00 | 0.00 | 0.00 | 70 | 1021.5 |
| 20260509183659 | 65 | 285 | 0.0 | 2.0 | 0.00 | 0.00 | 0.00 | 70 | 1021.5 |
| 20260509182658 | 65 | 136 | 0.0 | 2.0 | 0.00 | 0.00 | 0.00 | 70 | 1021.5 |
| 20260509181657 | 65 | 97 | 0.0 | 2.0 | 0.00 | 0.00 | 0.00 | 70 | 1021.4 |
| 20260509180656 | 65 | 45 | 0.0 | 2.0 | 0.00 | 0.00 | 0.00 | 70 | 1021.1 |
| 20260509175655 | 65 | 173 | 1.0 | 4.0 | 0.00 | 0.00 | 0.00 | 70 | 1021.0 |
| 20260509174654 | 65 | 171 | 1.0 | 1.0 | 0.00 | 0.00 | 0.00 | 70 | 1020.9 |
| 20260509173653 | 64 | 166 | 0.0 | 4.0 | 0.00 | 0.00 | 0.00 | 70 | 1020.8 |
| 20260509172652 | 64 | 135 | 0.0 | 0.0 | 0.00 | 0.00 | 0.00 | 70 | 1020.9 |
| 20260509171651 | 63 | 151 | 1.0 | 3.0 | 0.00 | 0.00 | 0.00 | 70 | 1021.1 |
| 20260509170650 | 62 | 314 | 0.0 | 1.0 | 0.00 | 0.00 | 0.00 | 70 | 1021.0 |
| 20260509165648 | 62 | 132 | 0.0 | 1.0 | 0.00 | 0.00 | 0.00 | 70 | 1020.9 |
| 20260509164647 | 62 | 45 | 0.0 | 0.0 | 0.00 | 0.00 | 0.00 | 70 | 1021.1 |
| 20260509163646 | 62 | 90 | 0.0 | 0.0 | 0.00 | 0.00 | 0.00 | 70 | 1021.2 |
| 20260509162645 | 62 | 45 | 0.0 | 0.0 | 0.00 | 0.00 | 0.00 | 70 | 1021.2 |
| 20260509161644 | 62 | 45 | 0.0 | 0.0 | 0.00 | 0.00 | 0.00 | 70 | 1021.3 |
| 20260509160643 | 62 | 90 | 0.0 | 0.0 | 0.00 | 0.00 | 0.00 | 70 | 1021.4 |
| 20260509155642 | 62 | 91 | 0.0 | 0.0 | 0.00 | 0.00 | 0.00 | 70 | 1021.4 |
| 20260509154641 | 62 | 90 | 0.0 | 0.0 | 0.00 | 0.00 | 0.00 | 70 | 1021.5 |
| 20260509153640 | 63 | 180 | 0.0 | 0.0 | 0.00 | 0.00 | 0.00 | 70 | 1021.4 |
| 20260509152639 | 63 | 45 | 0.0 | 0.0 | 0.00 | 0.00 | 0.00 | 70 | 1021.5 |
| 20260509151638 | 63 | 248 | 0.0 | 2.0 | 0.00 | 0.00 | 0.00 | 70 | 1021.4 |
| 20260509150637 | 63 | 138 | 0.0 | 1.0 | 0.00 | 0.00 | 0.00 | 70 | 1021.7 |
| 20260509145635 | 63 | 69 | 0.0 | 1.0 | 0.00 | 0.00 | 0.00 | 70 | 1021.6 |
| 20260509144634 | 63 | 253 | 0.0 | 2.0 | 0.00 | 0.00 | 0.00 | 70 | 1021.7 |
| 20260509143634 | 64 | 94 | 0.0 | 1.0 | 0.00 | 0.00 | 0.00 | 70 | 1021.6 |
| 20260509142633 | 64 | 135 | 0.0 | 1.0 | 0.00 | 0.00 | 0.00 | 70 | 1021.8 |
| 20260509141631 | 64 | 180 | 0.0 | 1.0 | 0.00 | 0.00 | 0.00 | 70 | 1021.9 |
| 20260509140630 | 64 | 155 | 0.0 | 1.0 | 0.00 | 0.00 | 0.00 | 70 | 1021.9 |
| 20260509135629 | 64 | 135 | 0.0 | 2.0 | 0.00 | 0.00 | 0.00 | 70 | 1021.9 |
| 20260509134628 | 65 | 117 | 0.0 | 0.0 | 0.00 | 0.00 | 0.00 | 70 | 1022.2 |
| 20260509133627 | 65 | 270 | 0.0 | 1.0 | 0.00 | 0.00 | 0.00 | 70 | 1022.1 |
| 20260509132626 | 65 | 93 | 0.0 | 2.0 | 0.00 | 0.00 | 0.00 | 70 | 1022.2 |
| 20260509131625 | 65 | 144 | 0.0 | 2.0 | 0.00 | 0.00 | 0.00 | 70 | 1022.2 |
| 20260509130624 | 65 | 204 | 0.0 | 1.0 | 0.00 | 0.00 | 0.00 | 70 | 1022.2 |
| 20260509125623 | 64 | 153 | 0.0 | 2.0 | 0.00 | 0.00 | 0.00 | 70 | 1022.2 |
| 20260509124622 | 65 | 276 | 0.0 | 1.0 | 0.00 | 0.00 | 0.00 | 70 | 1022.1 |
| 20260509123621 | 65 | 154 | 0.0 | 0.0 | 0.00 | 0.00 | 0.00 | 70 | 1022.1 |
| 20260509122620 | 65 | 106 | 0.0 | 1.0 | 0.00 | 0.00 | 0.00 | 70 | 1022.0 |
| 20260509121618 | 65 | 142 | 1.0 | 1.0 | 0.00 | 0.00 | 0.00 | 70 | 1021.9 |
| 20260509120617 | 66 | 45 | 0.0 | 1.0 | 0.00 | 0.00 | 0.00 | 70 | 1022.1 |
| 20260509115616 | 67 | 133 | 0.0 | 1.0 | 0.00 | 0.00 | 0.00 | 70 | 1022.0 |
| 20260509114615 | 67 | 352 | 0.0 | 1.0 | 0.00 | 0.00 | 0.00 | 70 | 1021.9 |
| 20260509113614 | 69 | 135 | 0.0 | 2.0 | 0.00 | 0.00 | 0.00 | 70 | 1022.2 |
| 20260509112613 | 70 | 240 | 0.0 | 1.0 | 0.00 | 0.00 | 0.00 | 70 | 1022.0 |
| 20260509111612 | 70 | 94 | 2.0 | 2.0 | 0.00 | 0.00 | 0.00 | 70 | 1022.1 |
| 20260509110611 | 70 | 20 | 1.0 | 3.0 | 0.00 | 0.00 | 0.00 | 70 | 1022.0 |
| 20260509105610 | 70 | 45 | 0.0 | 2.0 | 0.00 | 0.00 | 0.00 | 70 | 1022.1 |
| 20260509104609 | 70 | 61 | 1.0 | 3.0 | 0.00 | 0.00 | 0.00 | 70 | 1022.2 |
| 20260509103608 | 70 | 51 | 1.0 | 4.0 | 0.00 | 0.00 | 0.00 | 70 | 1022.0 |
| 20260509102607 | 70 | 76 | 1.0 | 4.0 | 0.00 | 0.00 | 0.00 | 70 | 1021.9 |
| 20260509101605 | 70 | 63 | 2.0 | 3.0 | 0.00 | 0.00 | 0.00 | 70 | 1022.0 |
| 20260509100605 | 70 | 34 | 0.0 | 5.0 | 0.00 | 0.00 | 0.00 | 70 | 1021.7 |
| 20260509100304 | 70 | 32 | 6.0 | 6.0 | 0.00 | 0.00 | 0.00 | 70 | 1021.8 |
| 20260509095556 | 70 | 48 | 0.0 | 3.0 | 0.00 | 0.00 | 0.00 | 70 | 1021.7 |
| 20260509094554 | 70 | 188 | 1.0 | 4.0 | 0.00 | 0.00 | 0.00 | 70 | 1021.5 |
| 20260509093553 | 70 | 85 | 0.0 | 2.0 | 0.00 | 0.00 | 0.00 | 70 | 1021.4 |
| 20260509092552 | 70 | 58 | 1.0 | 5.0 | 0.00 | 0.00 | 0.00 | 70 | 1021.2 |
| 20260509091551 | 70 | 56 | 2.0 | 3.0 | 0.00 | 0.00 | 0.00 | 70 | 1021.0 |
| 20260509090550 | 70 | 51 | 2.0 | 3.0 | 0.00 | 0.00 | 0.00 | 70 | 1020.9 |
| 20260509085550 | 70 | 68 | 0.0 | 3.0 | 0.00 | 0.00 | 0.00 | 70 | 1020.8 |
| 20260509085038 | 70 | 92 | 5.0 | 5.0 | 0.00 | 0.00 | 0.00 | 70 | 1020.6 |
| 20260509084336 | 70 | 65 | 0.0 | 3.0 | 0.00 | 0.00 | 0.00 | 70 | 1020.6 |
| 20260509083335 | 70 | 70 | 2.0 | 4.0 | 0.00 | 0.00 | 0.00 | 70 | 1020.5 |
| 20260509082334 | 71 | 26 | 2.0 | 4.0 | 0.00 | 0.00 | 0.00 | 70 | 1020.5 |
| 20260509081333 | 71 | 53 | 1.0 | 4.0 | 0.00 | 0.00 | 0.00 | 70 | 1020.4 |
| 20260509080332 | 71 | 55 | 0.0 | 3.0 | 0.00 | 0.00 | 0.00 | 70 | 1020.2 |
| 20260509075330 | 71 | 45 | 1.0 | 2.0 | 0.00 | 0.00 | 0.00 | 70 | 1020.1 |
| 20260509074329 | 72 | 68 | 1.0 | 2.0 | 0.00 | 0.00 | 0.00 | 70 | 1020.0 |
| 20260509073328 | 72 | 45 | 0.0 | 1.0 | 0.00 | 0.00 | 0.00 | 70 | 1019.8 |
| 20260509072327 | 73 | 45 | 0.0 | 1.0 | 0.00 | 0.00 | 0.00 | 70 | 1019.6 |
| 20260509071326 | 73 | 26 | 3.0 | 3.0 | 0.00 | 0.00 | 0.00 | 70 | 1019.5 |
| 20260509070325 | 74 | 49 | 2.0 | 3.0 | 0.00 | 0.00 | 0.00 | 70 | 1019.4 |
| 20260509065324 | 75 | 15 | 2.0 | 3.0 | 0.00 | 0.00 | 0.00 | 70 | 1019.2 |
| 20260509064323 | 76 | 34 | 1.0 | 4.0 | 0.00 | 0.00 | 0.00 | 70 | 1019.1 |
| 20260509063322 | 76 | 55 | 0.0 | 4.0 | 0.00 | 0.00 | 0.00 | 70 | 1019.0 |
| 20260509062321 | 77 | 38 | 2.0 | 2.0 | 0.00 | 0.00 | 0.00 | 70 | 1018.8 |
| 20260509061320 | 77 | 13 | 0.0 | 2.0 | 0.00 | 0.00 | 0.00 | 66 | 1018.8 |
| 20260509060319 | 78 | 76 | 0.0 | 2.0 | 0.00 | 0.00 | 0.00 | 59 | 1018.5 |
| 20260509055318 | 78 | 45 | 0.0 | 1.0 | 0.00 | 0.00 | 0.00 | 55 | 1018.4 |
| 20260509054317 | 79 | 45 | 1.0 | 4.0 | 0.00 | 0.00 | 0.00 | 52 | 1018.4 |
| 20260509053316 | 80 | 38 | 1.0 | 3.0 | 0.00 | 0.00 | 0.00 | 50 | 1018.3 |
| 20260509052315 | 81 | 26 | 2.0 | 6.0 | 0.00 | 0.00 | 0.00 | 48 | 1018.2 |
| 20260509052012 | 82 | 39 | 7.0 | 7.0 | 0.00 | 0.00 | 0.00 | 47 | 1018.2 |
| 20260509051706 | 82 | 45 | 1.0 | 5.0 | 0.00 | 0.00 | 0.00 | 47 | 1018.1 |
| 20260509050705 | 83 | 48 | 2.0 | 5.0 | 0.00 | 0.00 | 0.00 | 47 | 1018.2 |
| 20260509045704 | 83 | 13 | 4.0 | 6.0 | 0.00 | 0.00 | 0.00 | 45 | 1018.1 |